QPF
0.00 0.00 0.00 0.00 0.01 0.00 0.00 0.00 0.00 0.00 0.00 0.00 0.00 0.00 0.01 0.01 0.02 0.06 0.00 0.00 0.00 0.00 0.00 0.00 0.00 0.00 0.01 0.00 0.00 0.00 0.00 0.00 0.00 0.00 0.00 0.00 0.00 0.00 0.00 0.00 0.00 0.00 0.01 0.02 0.03 0.03 0.02 0.01 0.00
0.00 0.00 0.00 0.00 0.00 0.00 0.01 0.00 0.00 0.00 0.00 0.00 0.00 0.00 0.02 0.01 0.00 0.00 0.00 0.00 0.00 0.00 0.00 0.00 0.00 0.00 0.00 0.00 0.00 0.00 0.00 0.00 0.00 0.00 0.00 0.00 0.00 0.00 0.00 0.00 0.00 0.00 0.07 0.06 0.02 0.03 0.05 0.00 0.00
0.00 0.00 0.00 0.00 0.00 0.00 0.01 0.00 0.00 0.00 0.00 0.00 0.01 0.01 0.01 0.01 0.00 0.00 0.00 0.00 0.00 0.00 0.00 0.00 0.00 0.00 0.00 0.00 0.00 0.00 0.00 0.00 0.00 0.00 0.00 0.00 0.00 0.02 0.01 0.00 0.00 0.02 0.05 0.00 0.00 0.00 0.01 0.09 0.01
0.00 0.00 0.00 0.01 0.00 0.01 0.00 0.00 0.00 0.00 0.00 0.00 0.00 0.00 0.00 0.00 0.00 0.00 0.00 0.00 0.00 0.00 0.00 0.00 0.00 0.00 0.00 0.00 0.00 0.00 0.00 0.00 0.00 0.00 0.01 0.00 0.01 0.02 0.02 0.00 0.00 0.00 0.00 0.00 0.00 0.00 0.00 0.05 0.04
0.00 0.00 0.00 0.00 0.00 0.00 0.00 0.00 0.00 0.00 0.00 0.00 0.00 0.00 0.00 0.00 0.00 0.00 0.00 0.00 0.00 0.00 0.00 0.00 0.00 0.00 0.00 0.00 0.00 0.00 0.00 0.00 0.00 0.00 0.00 0.00 0.01 0.03 0.01 0.00 0.00 0.00 0.00 0.00 0.00 0.00 0.00 0.00 0.00
0.00 0.00 0.00 0.00 0.00 0.00 0.00 0.00 0.00 0.00 0.00 0.00 0.00 0.00 0.00 0.00 0.00 0.00 0.00 0.00 0.00 0.00 0.00 0.00 0.00 0.00 0.00 0.00 0.00 0.00 0.00 0.00 0.00 0.00 0.01 0.00 0.01 0.02 0.03 0.03 0.00 0.00 0.00 0.00 0.00 0.00 0.00 0.00 0.00
0.00 0.00 0.00 0.00 0.00 0.00 0.00 0.00 0.00 0.00 0.00 0.00 0.00 0.00 0.00 0.00 0.00 0.00 0.00 0.00 0.00 0.00 0.00 0.00 0.00 0.00 0.00 0.00 0.00 0.00 0.00 0.00 0.00 0.00 0.00 0.00 0.00 0.00 0.00 0.02 0.00 0.00 0.00 0.00 0.00 0.00 0.00 0.00 0.00
0.00 0.00 0.00 0.00 0.00 0.00 0.00 0.00 0.00 0.00 0.00 0.00 0.00 0.00 0.00 0.00 0.00 0.00 0.00 0.00 0.00 0.00 0.00 0.00 0.00 0.00 0.00 0.00 0.00 0.00 0.02 0.00 0.00 0.00 0.00 0.00 0.00 0.00 0.00 0.00 0.00 0.01 0.01 0.00 0.00 0.00 0.00 0.00 0.00
0.00 0.00 0.00 0.00 0.00 0.00 0.00 0.00 0.00 0.00 0.00 0.00 0.00 0.00 0.00 0.00 0.00 0.00 0.00 0.00 0.00 0.00 0.00 0.00 0.00 0.00 0.00 0.00 0.00 0.00 0.00 0.00 0.00 0.00 0.00 0.00 0.00 0.00 0.00 0.00 0.00 0.00 0.01 0.00 0.00 0.00 0.00 0.00 0.00
0.00 0.00 0.00 0.00 0.00 0.00 0.00 0.00 0.00 0.00 0.00 0.00 0.00 0.00 0.00 0.00 0.00 0.00 0.00 0.00 0.00 0.00 0.00 0.00 0.00 0.00 0.00 0.00 0.01 0.00 0.00 0.02 0.00 0.00 0.00 0.00 0.00 0.00 0.00 0.00 0.00 0.00 0.00 0.00 0.00 0.00 0.00 0.00 0.00
0.00 0.00 0.00 0.00 0.00 0.00 0.00 0.00 0.00 0.00 0.00 0.00 0.00 0.00 0.00 0.00 0.00 0.00 0.00 0.00 0.00 0.00 0.00 0.00 0.00 0.00 0.00 0.00 0.00 0.00 0.01 0.08 0.04 0.03 0.00 0.00 0.00 0.00 0.00 0.00 0.00 0.00 0.00 0.00 0.00 0.00 0.00 0.00 0.00
0.00 0.00 0.00 0.00 0.00 0.00 0.00 0.00 0.00 0.00 0.00 0.00 0.00 0.00 0.00 0.00 0.00 0.00 0.00 0.00 0.00 0.00 0.00 0.00 0.00 0.00 0.00 0.00 0.00 0.00 0.02 0.03 0.02 0.02 0.02 0.03 0.00 0.00 0.00 0.00 0.00 0.00 0.00 0.00 0.00 0.01 0.02 0.06 0.04
0.00 0.00 0.00 0.00 0.00 0.00 0.00 0.00 0.00 0.00 0.00 0.00 0.00 0.00 0.00 0.00 0.00 0.00 0.00 0.00 0.00 0.00 0.00 0.00 0.00 0.00 0.00 0.00 0.00 0.00 0.00 0.02 0.02 0.06 0.01 0.01 0.02 0.01 0.00 0.01 0.02 0.00 0.00 0.00 0.00 0.08 0.16 0.04 0.04
0.00 0.00 0.00 0.00 0.00 0.00 0.00 0.00 0.00 0.00 0.00 0.00 0.00 0.00 0.00 0.00 0.00 0.00 0.00 0.00 0.00 0.00 0.00 0.00 0.00 0.00 0.00 0.00 0.00 0.00 0.00 0.01 0.10 0.02 0.04 0.11 0.03 0.08 0.11 0.10 0.18 0.05 0.00 0.00 0.01 0.11 0.11 0.05 0.02
0.00 0.00 0.00 0.00 0.00 0.00 0.00 0.00 0.00 0.00 0.00 0.00 0.00 0.00 0.00 0.00 0.00 0.00 0.00 0.00 0.00 0.00 0.00 0.00 0.00 0.00 0.00 0.00 0.00 0.00 0.00 0.01 0.03 0.06 0.09 0.07 0.03 0.20 0.17 0.16 0.10 0.03 0.00 0.00 0.00 0.16 0.23 0.05 0.05
0.00 0.00 0.00 0.00 0.00 0.00 0.00 0.00 0.00 0.00 0.00 0.00 0.00 0.00 0.00 0.00 0.00 0.00 0.00 0.00 0.00 0.00 0.00 0.00 0.00 0.00 0.00 0.00 0.00 0.00 0.00 0.01 0.04 0.02 0.00 0.00 0.00 0.20 0.15 0.12 0.12 0.02 0.00 0.00 0.00 0.08 0.15 0.03 0.04
0.00 0.00 0.00 0.00 0.00 0.00 0.00 0.00 0.00 0.00 0.00 0.00 0.00 0.00 0.00 0.00 0.00 0.00 0.00 0.00 0.00 0.00 0.00 0.00 0.01 0.02 0.00 0.00 0.00 0.00 0.00 0.00 0.06 0.11 0.02 0.14 0.06 0.19 0.19 0.11 0.20 0.03 0.00 0.00 0.01 0.10 0.10 0.04 0.00
0.00 0.00 0.00 0.00 0.00 0.00 0.00 0.00 0.00 0.00 0.00 0.00 0.00 0.00 0.00 0.00 0.00 0.00 0.00 0.00 0.00 0.01 0.02 0.00 0.04 0.03 0.01 0.00 0.01 0.03 0.02 0.00 0.00 0.12 0.12 0.27 0.01 0.08 0.13 0.10 0.20 0.07 0.02 0.00 0.03 0.08 0.10 0.07 0.00
0.00 0.00 0.00 0.00 0.00 0.00 0.00 0.00 0.00 0.00 0.00 0.00 0.00 0.00 0.00 0.00 0.00 0.00 0.00 0.00 0.00 0.02 0.03 0.04 0.06 0.09 0.04 0.00 0.00 0.01 0.04 0.01 0.06 0.11 0.29 0.18 0.05 0.03 0.17 0.16 0.14 0.06 0.03 0.02 0.03 0.07 0.16 0.05 0.02
0.00 0.00 0.00 0.00 0.00 0.00 0.00 0.00 0.00 0.00 0.00 0.00 0.00 0.00 0.00 0.00 0.00 0.00 0.01 0.00 0.01 0.08 0.16 0.24 0.19 0.18 0.05 0.00 0.02 0.05 0.13 0.09 0.06 0.10 0.18 0.10 0.03 0.05 0.13 0.14 0.17 0.25 0.16 0.03 0.02 0.05 0.13 0.12 0.00
0.00 0.00 0.00 0.00 0.00 0.00 0.00 0.00 0.00 0.00 0.00 0.00 0.00 0.00 0.00 0.00 0.00 0.00 0.00 0.00 0.00 0.07 0.15 0.15 0.16 0.11 0.04 0.02 0.10 0.14 0.16 0.13 0.21 0.16 0.06 0.05 0.03 0.02 0.04 0.13 0.13 0.03 0.12 0.06 0.01 0.01 0.02 0.12 0.07
0.00 0.00 0.00 0.00 0.00 0.00 0.00 0.00 0.00 0.00 0.00 0.00 0.00 0.00 0.00 0.00 0.00 0.00 0.00 0.00 0.00 0.02 0.08 0.05 0.05 0.05 0.05 0.05 0.14 0.10 0.16 0.18 0.13 0.09 0.05 0.02 0.00 0.00 0.00 0.04 0.05 0.02 0.05 0.05 0.01 0.00 0.00 0.03 0.13
0.00 0.00 0.00 0.00 0.00 0.00 0.00 0.00 0.00 0.00 0.00 0.00 0.00 0.00 0.00 0.00 0.00 0.00 0.00 0.00 0.00 0.00 0.02 0.12 0.12 0.06 0.03 0.06 0.12 0.18 0.18 0.23 0.18 0.09 0.02 0.00 0.00 0.00 0.01 0.04 0.12 0.06 0.11 0.08 0.00 0.00 0.00 0.00 0.03
0.00 0.00 0.00 0.00 0.00 0.00 0.00 0.00 0.00 0.00 0.00 0.00 0.00 0.00 0.00 0.00 0.00 0.00 0.00 0.00 0.00 0.00 0.00 0.02 0.03 0.01 0.01 0.04 0.02 0.09 0.12 0.14 0.09 0.03 0.00 0.00 0.00 0.01 0.13 0.07 0.10 0.08 0.09 0.09 0.03 0.05 0.02 0.00 0.00
0.00 0.00 0.00 0.00 0.00 0.00 0.00 0.00 0.00 0.00 0.00 0.00 0.00 0.00 0.00 0.00 0.00 0.00 0.00 0.00 0.00 0.00 0.00 0.00 0.00 0.00 0.00 0.01 0.01 0.04 0.14 0.04 0.07 0.05 0.01 0.06 0.00 0.02 0.06 0.09 0.10 0.07 0.07 0.08 0.11 0.05 0.03 0.01 0.00
0.00 0.00 0.00 0.00 0.00 0.00 0.00 0.00 0.00 0.00 0.00 0.00 0.00 0.00 0.00 0.00 0.00 0.00 0.00 0.00 0.00 0.00 0.00 0.00 0.00 0.00 0.00 0.00 0.02 0.12 0.10 0.11 0.01 0.00 0.08 0.12 0.04 0.00 0.00 0.01 0.09 0.12 0.06 0.10 0.13 0.07 0.02 0.02 0.01
0.00 0.00 0.00 0.00 0.00 0.00 0.00 0.00 0.00 0.00 0.00 0.00 0.00 0.00 0.00 0.00 0.00 0.00 0.00 0.00 0.00 0.00 0.00 0.00 0.00 0.05 0.05 0.00 0.08 0.10 0.08 0.12 0.06 0.05 0.01 0.01 0.01 0.02 0.09 0.11 0.08 0.07 0.10 0.10 0.10 0.08 0.03 0.04 0.01
0.00 0.00 0.00 0.00 0.00 0.00 0.00 0.00 0.00 0.00 0.00 0.00 0.00 0.00 0.00 0.00 0.00 0.00 0.00 0.00 0.00 0.00 0.00 0.00 0.00 0.00 0.00 0.00 0.01 0.02 0.07 0.02 0.06 0.05 0.00 0.01 0.00 0.00 0.02 0.11 0.17 0.18 0.06 0.06 0.14 0.10 0.10 0.04 0.02
0.00 0.00 0.00 0.00 0.00 0.00 0.00 0.00 0.00 0.00 0.00 0.00 0.00 0.00 0.00 0.00 0.00 0.00 0.00 0.00 0.00 0.00 0.00 0.00 0.00 0.00 0.00 0.00 0.00 0.00 0.04 0.04 0.03 0.01 0.00 0.07 0.03 0.00 0.00 0.01 0.08 0.10 0.14 0.16 0.14 0.12 0.14 0.12 0.06
0.00 0.00 0.00 0.00 0.00 0.00 0.00 0.00 0.00 0.00 0.00 0.00 0.00 0.00 0.00 0.00 0.00 0.00 0.00 0.00 0.00 0.00 0.00 0.00 0.00 0.00 0.00 0.00 0.00 0.01 0.01 0.03 0.02 0.03 0.00 0.00 0.00 0.00 0.00 0.01 0.03 0.02 0.02 0.05 0.11 0.19 0.16 0.09 0.11
MSLP
1005.04 1004.20 1003.14 1002.44 1001.89 1000.30 1000.65 1001.96 1002.55 1002.12 1002.07 1002.31 1002.49 1003.46 1003.64 1003.91 1004.14 1005.37 1006.51 1007.93 1008.69 1009.96 1011.42 1012.10 1012.66 1012.93 1013.22 1013.67 1014.00 1014.37 1014.72 1015.02 1015.35 1015.55 1015.66 1015.77 1015.98 1016.08 1016.23 1016.37 1016.45 1016.50 1016.64 1016.69 1016.87 1016.91 1017.00 1016.94 1016.86
1003.81 1003.32 1002.91 1001.17 1001.31 1000.44 1001.03 1002.02 1002.14 1002.12 1002.23 1002.35 1002.80 1003.03 1004.09 1004.86 1005.37 1005.98 1006.75 1008.14 1008.90 1009.91 1011.03 1012.01 1012.96 1013.31 1013.59 1013.94 1014.21 1014.53 1014.96 1015.25 1015.56 1015.79 1015.91 1016.00 1016.13 1016.34 1016.48 1016.59 1016.70 1016.74 1016.97 1016.97 1017.05 1017.11 1017.09 1017.20 1017.22
1004.36 1003.50 1001.61 1000.40 1000.46 1000.49 1001.06 1002.02 1002.85 1002.92 1002.71 1002.71 1003.14 1003.80 1004.42 1006.31 1006.08 1006.46 1007.38 1009.01 1009.26 1010.33 1010.82 1012.62 1013.21 1013.52 1013.93 1014.22 1014.54 1014.86 1015.19 1015.49 1015.68 1015.92 1016.09 1016.18 1016.39 1016.56 1016.70 1016.81 1016.91 1017.01 1017.02 1017.27 1017.29 1017.30 1017.30 1017.39 1017.48
1002.67 1001.95 1001.36 1001.40 1000.75 1001.05 1001.28 1001.96 1002.12 1002.06 1002.29 1002.60 1002.94 1004.25 1006.82 1006.75 1006.75 1007.05 1008.00 1009.59 1010.07 1010.87 1011.36 1013.27 1013.59 1013.94 1014.25 1014.68 1014.91 1015.12 1015.41 1015.67 1015.81 1015.99 1016.22 1016.42 1016.64 1016.86 1016.88 1016.94 1017.05 1017.17 1017.32 1017.49 1017.55 1017.56 1017.49 1017.37 1017.65
1002.21 1000.79 1000.60 1001.24 1001.31 1001.57 1001.34 1001.88 1001.87 1001.99 1001.82 1002.27 1002.82 1004.72 1007.24 1007.96 1007.68 1007.88 1008.21 1009.84 1010.55 1011.28 1012.09 1013.22 1013.90 1014.13 1014.52 1014.88 1015.20 1015.44 1015.64 1015.79 1016.02 1016.21 1016.47 1016.72 1016.94 1017.05 1017.07 1017.10 1017.14 1017.30 1017.36 1017.50 1017.63 1017.75 1017.78 1017.83 1017.81
1000.88 999.88 1000.32 1000.61 1001.47 1001.65 1001.67 1001.94 1001.71 1001.69 1002.20 1002.86 1003.59 1005.25 1007.31 1008.97 1008.57 1008.56 1008.20 1009.45 1010.73 1011.51 1012.04 1013.21 1014.07 1014.40 1014.73 1014.99 1015.38 1015.69 1015.84 1016.02 1016.11 1016.26 1016.49 1016.80 1016.97 1017.19 1017.26 1017.25 1017.28 1017.38 1017.46 1017.51 1017.63 1017.80 1017.91 1017.91 1017.90
1000.81 1000.55 1000.01 1000.61 1001.29 1001.28 1001.63 1001.66 1001.35 1001.49 1002.03 1002.45 1002.88 1004.93 1007.09 1008.08 1009.47 1009.12 1008.35 1008.98 1010.23 1010.69 1011.66 1013.26 1013.90 1014.51 1015.04 1015.33 1015.60 1015.85 1015.99 1016.23 1016.39 1016.53 1016.64 1016.78 1016.96 1017.20 1017.40 1017.45 1017.40 1017.48 1017.58 1017.62 1017.77 1017.88 1018.01 1017.97 1017.95
999.44 999.26 1000.08 1000.37 1000.61 1001.08 1001.47 1001.36 1001.73 1001.33 1002.26 1003.00 1003.09 1004.40 1006.65 1007.97 1009.34 1008.97 1008.54 1008.94 1009.32 1010.37 1011.76 1013.04 1013.53 1014.23 1014.80 1015.26 1015.80 1016.00 1016.22 1016.31 1016.44 1016.58 1016.73 1016.90 1016.64 1017.12 1017.44 1017.52 1017.51 1017.61 1017.69 1017.70 1017.76 1017.90 1017.95 1017.95 1018.00
1000.04 999.92 999.89 1000.01 1000.33 1000.94 1001.29 1001.33 1001.95 1002.10 1002.43 1002.72 1003.46 1003.54 1005.61 1007.88 1009.13 1009.14 1008.64 1009.30 1009.77 1010.65 1011.85 1012.45 1013.08 1013.88 1014.55 1014.95 1015.75 1016.22 1016.40 1016.53 1016.65 1016.80 1016.96 1017.06 1016.73 1016.65 1017.07 1017.24 1017.52 1017.57 1017.69 1017.68 1017.75 1017.79 1017.89 1017.95 1017.89
1000.12 1000.07 999.88 999.86 999.88 1000.28 1000.99 1000.84 1001.43 1001.40 1002.05 1003.37 1004.27 1005.36 1006.70 1007.96 1008.98 1009.26 1008.58 1009.17 1009.83 1010.55 1011.61 1012.17 1012.63 1013.37 1014.03 1014.22 1015.31 1015.76 1016.13 1016.25 1016.32 1016.48 1016.89 1016.97 1016.55 1016.69 1016.71 1016.82 1017.24 1017.41 1017.51 1017.47 1017.56 1017.53 1017.49 1017.62 1016.79
999.71 999.53 1000.12 1000.61 1000.30 1000.22 1000.92 1001.10 1001.17 1001.07 1001.65 1002.69 1003.98 1005.83 1007.14 1007.89 1008.79 1009.39 1009.01 1009.14 1009.72 1010.49 1011.24 1012.25 1012.31 1013.43 1013.53 1013.86 1014.62 1014.89 1015.55 1016.31 1016.10 1016.42 1016.93 1016.71 1016.46 1016.53 1016.65 1016.58 1016.78 1016.47 1016.97 1016.64 1016.84 1016.72 1016.77 1016.32 1016.67
999.96 1000.46 1000.53 1000.55 1000.92 1000.73 1000.70 1000.97 1001.17 1001.40 1002.30 1002.71 1003.76 1005.63 1006.76 1007.49 1008.12 1008.88 1009.27 1009.00 1009.59 1010.42 1011.12 1011.83 1012.52 1012.69 1012.80 1013.20 1013.69 1014.14 1014.99 1015.67 1015.55 1015.56 1016.18 1016.33 1016.33 1016.11 1016.33 1016.55 1016.97 1016.61 1016.27 1016.61 1016.25 1016.12 1016.08 1016.21 1016.64
999.70 1000.37 1000.54 1000.79 1000.96 1000.71 1001.02 1000.96 1001.26 1001.53 1002.25 1002.94 1003.88 1005.29 1006.27 1006.91 1007.72 1008.38 1008.84 1008.91 1009.37 1010.14 1010.96 1011.46 1012.12 1012.81 1012.91 1013.27 1013.43 1013.55 1014.16 1015.12 1014.84 1015.08 1015.60 1015.85 1016.21 1016.19 1016.22 1016.20 1016.39 1016.63 1016.41 1016.12 1016.04 1016.39 1016.79 1016.94 1016.54
1000.29 1000.44 1000.27 1000.54 1000.58 1000.55 1000.75 1000.63 1001.19 1001.15 1002.18 1002.85 1003.86 1004.76 1005.45 1005.97 1006.85 1007.76 1008.31 1008.53 1009.15 1009.90 1010.74 1011.35 1012.21 1012.98 1013.34 1013.62 1013.82 1013.91 1014.48 1014.48 1015.71 1015.45 1015.51 1015.98 1015.90 1016.19 1016.10 1016.23 1016.45 1016.45 1015.64 1015.61 1015.58 1016.38 1016.68 1016.96 1017.09
1000.44 1000.15 1000.20 1000.24 1000.33 1000.32 1000.83 1000.48 1000.42 1001.31 1001.98 1002.76 1003.43 1004.19 1004.91 1005.49 1006.24 1007.24 1007.95 1008.53 1009.11 1009.98 1010.67 1011.48 1012.11 1012.59 1013.54 1013.89 1014.09 1014.11 1014.42 1014.64 1014.93 1015.35 1015.92 1016.18 1016.20 1016.23 1016.32 1016.24 1016.36 1015.91 1015.22 1015.41 1015.37 1016.19 1016.59 1017.09 1016.90
1000.10 999.84 999.42 999.81 1000.50 1000.43 1000.91 1002.99 999.96 1001.15 1001.61 1002.31 1002.94 1003.91 1004.57 1005.31 1005.97 1007.04 1007.77 1008.52 1009.32 1010.52 1011.41 1012.11 1012.23 1012.47 1013.22 1013.74 1014.14 1013.91 1013.63 1013.93 1014.14 1015.47 1015.68 1016.27 1016.22 1015.86 1016.11 1016.12 1015.95 1015.33 1014.98 1014.99 1015.18 1015.87 1016.42 1016.67 1016.70
999.81 999.19 999.18 999.86 1000.20 1000.15 1000.71 999.91 1000.32 1000.85 1000.87 1001.47 1002.65 1003.56 1004.19 1005.08 1005.73 1006.60 1007.55 1008.40 1009.19 1010.35 1011.42 1012.31 1012.68 1012.87 1013.26 1013.92 1014.24 1013.98 1013.71 1013.84 1014.61 1015.31 1015.45 1015.42 1015.55 1015.63 1015.79 1015.78 1015.51 1015.14 1014.81 1015.14 1015.04 1015.86 1016.07 1016.36 1016.34
998.54 998.46 999.12 999.22 999.94 1000.29 1000.05 999.79 999.68 1000.27 1000.77 1000.94 1001.77 1002.67 1003.63 1004.56 1005.33 1006.16 1006.98 1008.00 1008.92 1010.29 1011.33 1012.12 1013.07 1013.78 1014.11 1014.33 1014.62 1014.55 1013.67 1013.85 1013.54 1014.27 1014.83 1015.26 1015.55 1015.34 1015.05 1014.84 1014.99 1014.98 1014.94 1015.03 1015.28 1015.56 1015.45 1015.88 1015.49
999.34 999.12 998.80 999.06 999.72 999.97 999.57 999.41 999.16 999.33 1000.06 1000.67 1000.69 1001.54 1002.64 1003.81 1004.61 1005.43 1006.18 1007.15 1008.54 1010.11 1010.85 1011.82 1012.86 1013.56 1013.84 1015.31 1015.39 1014.67 1014.30 1013.65 1013.38 1013.50 1014.44 1014.86 1014.89 1014.91 1014.76 1014.86 1014.69 1014.61 1014.78 1014.87 1015.12 1015.24 1015.49 1015.17 1015.21
999.26 999.12 998.86 999.14 999.72 1000.12 999.49 999.35 999.08 998.83 999.18 999.62 999.97 1000.62 1001.75 1002.53 1003.27 1004.69 1005.72 1006.69 1008.20 1009.43 1010.42 1011.59 1012.24 1013.15 1014.03 1015.01 1015.18 1014.83 1014.17 1013.62 1013.26 1013.41 1014.00 1014.29 1014.35 1014.18 1014.06 1014.63 1014.46 1014.60 1014.71 1014.75 1014.90 1015.21 1015.12 1015.25 1014.63
999.25 998.53 998.65 999.26 999.62 999.38 999.32 998.88 999.01 998.80 998.84 999.13 999.56 999.93 1000.30 1001.21 1001.84 1003.09 1004.53 1005.96 1007.57 1008.76 1010.12 1010.87 1011.94 1012.73 1013.77 1014.26 1014.56 1014.42 1014.25 1013.87 1013.73 1013.76 1013.85 1013.76 1013.50 1013.53 1013.78 1014.05 1014.36 1014.46 1014.64 1014.59 1014.61 1014.93 1014.77 1014.91 1014.50
998.40 998.64 999.54 999.66 999.36 998.62 1000.41 998.86 999.85 998.43 997.92 998.24 998.62 999.07 999.87 1000.64 1001.37 1002.41 1003.78 1004.83 1006.70 1007.65 1009.39 1010.56 1011.79 1012.38 1013.03 1013.57 1013.67 1013.64 1013.44 1013.24 1013.50 1013.74 1013.70 1013.66 1013.78 1013.48 1013.88 1013.93 1013.89 1014.23 1014.29 1014.13 1014.28 1014.36 1014.37 1014.54 1014.74
998.46 999.20 999.60 999.45 999.17 998.28 997.64 997.38 997.23 997.55 997.35 996.78 997.27 997.72 998.58 999.39 1000.67 1001.89 1003.17 1004.33 1006.09 1007.57 1008.64 1009.81 1010.93 1011.62 1012.17 1012.52 1012.92 1012.95 1012.92 1012.94 1013.00 1013.46 1013.53 1013.67 1013.41 1013.77 1013.73 1013.24 1013.58 1013.96 1013.96 1014.05 1013.86 1013.98 1014.47 1013.99 1014.23
998.91 999.28 999.72 999.37 998.64 997.52 996.63 996.68 995.94 996.33 997.58 997.72 996.83 997.71 998.69 999.24 1000.42 1002.08 1003.50 1004.66 1006.16 1007.60 1008.15 1009.26 1010.19 1010.62 1011.11 1011.67 1012.07 1012.21 1012.34 1012.57 1012.88 1013.04 1013.14 1012.40 1012.94 1013.20 1012.90 1012.73 1013.01 1013.50 1013.73 1013.87 1013.71 1014.08 1014.26 1014.35 1013.86
999.10 999.21 998.36 997.69 997.13 996.39 996.11 996.90 995.90 996.15 996.20 996.36 996.82 997.36 998.43 999.67 1000.84 1002.40 1003.60 1004.55 1005.34 1006.34 1007.81 1008.82 1009.53 1010.17 1010.45 1011.13 1011.34 1011.39 1011.65 1011.83 1012.15 1012.27 1011.87 1011.95 1012.22 1012.24 1012.40 1012.62 1012.94 1013.08 1013.28 1013.64 1013.97 1014.06 1014.16 1014.25 1014.04
998.45 998.52 997.20 996.32 995.99 996.45 997.96 996.45 995.51 995.90 996.15 996.30 996.93 997.17 997.94 999.45 1000.70 1002.09 1003.43 1004.41 1005.32 1006.20 1007.33 1008.32 1008.92 1009.53 1009.93 1010.36 1010.60 1011.15 1011.28 1011.69 1011.14 1011.53 1011.31 1012.23 1012.30 1012.62 1012.35 1012.25 1012.56 1012.99 1012.92 1013.37 1013.75 1014.06 1014.03 1014.06 1014.06
997.56 998.02 997.40 996.47 995.74 995.66 995.57 994.93 994.94 995.60 996.00 996.17 996.63 997.16 997.64 998.84 1000.14 1001.58 1003.05 1004.17 1005.11 1005.94 1006.49 1007.39 1008.28 1008.87 1009.34 1009.56 1010.23 1010.85 1011.11 1011.25 1010.82 1011.02 1011.67 1011.78 1012.25 1012.33 1011.99 1012.30 1012.21 1012.55 1012.84 1013.13 1013.38 1013.61 1013.60 1013.51 1013.63
997.17 996.98 997.23 996.91 996.53 995.85 995.23 996.44 994.61 995.42 995.86 996.13 996.20 996.56 997.29 998.42 999.95 1001.25 1002.61 1003.76 1004.80 1005.56 1006.29 1006.91 1007.73 1008.52 1009.11 1009.15 1009.77 1010.12 1010.80 1010.66 1010.85 1011.60 1011.65 1012.01 1012.14 1012.19 1011.96 1012.06 1012.05 1012.36 1012.56 1012.83 1013.23 1013.52 1013.50 1013.42 1013.27
997.32 996.92 997.10 996.07 995.79 995.40 994.65 994.69 995.19 995.28 995.67 995.99 996.15 996.32 996.70 998.13 999.76 1001.11 1002.33 1003.37 1004.31 1005.02 1005.84 1006.51 1007.31 1007.73 1008.23 1008.45 1008.69 1009.46 1009.95 1010.65 1011.37 1011.31 1011.45 1011.74 1011.78 1012.00 1012.01 1012.19 1012.29 1012.31 1012.44 1012.70 1012.94 1013.29 1013.29 1013.42 1013.24
996.46 996.72 996.60 996.09 996.05 995.96 995.25 994.73 994.40 995.19 995.75 995.96 996.31 996.42 996.99 998.27 999.78 1001.07 1002.11 1003.07 1003.87 1004.57 1005.28 1006.18 1006.95 1007.27 1007.80 1008.10 1008.66 1009.29 1010.22 1010.79 1010.88 1011.26 1011.31 1011.62 1011.51 1011.66 1011.73 1011.82 1011.94 1012.28 1012.39 1012.61 1012.96 1013.00 1013.12 1013.12 1013.35
Thickness
5863 5871 5879 5868 5829 5846 5828 5820 5833 5831 5833 5851 5852 5830 5823 5830 5816 5790 5838 5831 5826 5815 5801 5797 5793 5790 5787 5783 5782 5780 5777 5774 5771 5769 5767 5766 5762 5760 5759 5757 5754 5752 5750 5749 5748 5749 5748 5748 5748
5875 5874 5869 5864 5810 5817 5821 5835 5826 5839 5847 5856 5850 5845 5825 5813 5831 5828 5827 5830 5825 5816 5805 5798 5791 5788 5786 5782 5781 5779 5775 5773 5770 5767 5766 5765 5762 5759 5757 5756 5754 5753 5750 5750 5749 5748 5748 5747 5746
5869 5874 5860 5852 5835 5818 5816 5833 5825 5837 5850 5846 5837 5844 5833 5808 5831 5829 5835 5824 5823 5813 5809 5794 5790 5788 5783 5781 5779 5776 5773 5771 5769 5767 5765 5764 5761 5758 5756 5755 5754 5753 5752 5749 5749 5748 5747 5747 5744
5874 5872 5866 5807 5823 5836 5836 5839 5845 5844 5851 5854 5849 5823 5818 5832 5829 5835 5834 5821 5816 5810 5805 5789 5786 5783 5781 5777 5775 5775 5771 5768 5767 5766 5764 5762 5759 5757 5756 5755 5754 5752 5751 5748 5748 5747 5747 5748 5744
5876 5870 5832 5824 5826 5837 5850 5850 5852 5841 5849 5849 5851 5821 5804 5821 5833 5833 5832 5819 5811 5807 5798 5789 5785 5782 5779 5776 5773 5771 5768 5767 5764 5763 5761 5759 5758 5756 5755 5755 5754 5752 5752 5750 5748 5746 5746 5744 5745
5856 5872 5829 5821 5823 5838 5847 5852 5851 5847 5847 5843 5836 5822 5810 5818 5822 5825 5833 5822 5813 5804 5799 5789 5783 5780 5777 5775 5771 5769 5767 5764 5763 5761 5759 5757 5757 5755 5754 5754 5754 5752 5751 5750 5748 5746 5744 5744 5744
5845 5839 5836 5834 5825 5832 5840 5859 5850 5848 5845 5842 5856 5818 5818 5821 5816 5823 5831 5827 5817 5811 5802 5789 5784 5779 5774 5771 5769 5766 5765 5762 5760 5759 5758 5756 5755 5755 5753 5754 5754 5752 5750 5750 5749 5746 5744 5744 5744
5877 5870 5839 5840 5828 5826 5850 5856 5858 5855 5840 5860 5862 5821 5806 5821 5819 5825 5830 5824 5822 5814 5802 5791 5787 5781 5776 5772 5768 5765 5764 5763 5761 5758 5756 5754 5757 5754 5754 5754 5754 5752 5750 5749 5748 5746 5745 5744 5743
5885 5840 5831 5838 5834 5834 5855 5845 5857 5864 5848 5853 5853 5853 5841 5830 5821 5818 5821 5815 5812 5808 5800 5796 5790 5784 5778 5775 5769 5765 5763 5762 5760 5758 5755 5753 5756 5759 5757 5757 5755 5754 5751 5751 5750 5747 5746 5746 5746
5859 5830 5840 5863 5863 5849 5852 5854 5852 5852 5846 5836 5837 5842 5836 5827 5816 5809 5815 5808 5805 5802 5798 5797 5793 5787 5782 5781 5773 5769 5765 5764 5764 5762 5759 5758 5761 5761 5761 5760 5757 5755 5754 5754 5752 5751 5750 5749 5754
5864 5843 5857 5855 5866 5867 5851 5849 5861 5852 5838 5844 5833 5826 5824 5821 5813 5806 5811 5811 5805 5803 5799 5793 5795 5786 5786 5783 5777 5775 5769 5764 5766 5764 5761 5762 5763 5763 5761 5761 5760 5762 5758 5759 5756 5757 5756 5758 5756
5844 5856 5857 5858 5860 5858 5850 5857 5848 5852 5844 5857 5851 5836 5826 5819 5815 5809 5806 5811 5806 5801 5798 5795 5791 5791 5791 5788 5785 5782 5775 5769 5770 5771 5765 5765 5764 5766 5765 5762 5759 5760 5762 5759 5760 5761 5761 5758 5755
5854 5851 5858 5859 5858 5859 5859 5849 5845 5847 5856 5858 5850 5836 5827 5824 5819 5817 5814 5815 5811 5802 5799 5798 5795 5788 5788 5787 5785 5785 5781 5775 5776 5773 5769 5767 5765 5765 5765 5765 5762 5760 5760 5762 5762 5759 5755 5754 5755
5855 5854 5857 5859 5857 5861 5850 5853 5854 5854 5858 5850 5843 5835 5833 5830 5824 5818 5814 5813 5810 5807 5800 5798 5791 5785 5782 5780 5778 5779 5776 5777 5771 5770 5769 5765 5766 5765 5765 5763 5761 5760 5765 5765 5765 5759 5756 5754 5753
5855 5841 5852 5854 5857 5854 5858 5841 5843 5856 5855 5843 5840 5837 5834 5832 5830 5819 5818 5812 5810 5804 5799 5794 5790 5788 5778 5775 5773 5774 5775 5773 5772 5769 5765 5761 5762 5762 5761 5763 5763 5765 5768 5766 5767 5760 5755 5754 5753
5841 5850 5833 5854 5851 5855 5850 5764 5851 5860 5852 5841 5841 5836 5833 5830 5828 5822 5818 5813 5809 5800 5792 5788 5788 5787 5780 5774 5769 5773 5776 5776 5775 5765 5765 5761 5760 5763 5762 5763 5766 5770 5770 5769 5769 5764 5755 5757 5757
5838 5823 5834 5833 5855 5853 5841 5835 5852 5860 5856 5847 5840 5836 5833 5827 5827 5824 5818 5813 5808 5799 5792 5783 5780 5778 5775 5769 5764 5770 5773 5772 5771 5764 5764 5764 5764 5763 5762 5765 5768 5771 5773 5769 5772 5764 5763 5758 5759
5830 5841 5836 5835 5843 5843 5840 5842 5859 5859 5853 5850 5846 5842 5835 5828 5824 5825 5821 5816 5809 5798 5791 5782 5772 5765 5764 5759 5759 5761 5770 5769 5775 5771 5766 5762 5763 5765 5768 5771 5770 5771 5771 5770 5769 5767 5769 5763 5767
5840 5836 5838 5848 5851 5839 5843 5844 5856 5865 5856 5847 5852 5848 5840 5832 5834 5832 5828 5821 5809 5795 5790 5780 5771 5765 5756 5748 5748 5755 5758 5768 5773 5774 5768 5765 5766 5767 5769 5769 5771 5772 5772 5772 5770 5770 5766 5769 5770
5839 5833 5836 5846 5849 5835 5840 5837 5855 5865 5859 5859 5856 5852 5844 5841 5840 5832 5826 5820 5808 5797 5790 5780 5771 5763 5758 5753 5750 5754 5761 5768 5774 5773 5769 5767 5768 5771 5773 5771 5772 5772 5772 5772 5772 5769 5768 5767 5775
5832 5840 5838 5828 5840 5849 5840 5832 5841 5860 5864 5864 5863 5862 5859 5849 5845 5839 5831 5823 5809 5801 5790 5786 5774 5770 5763 5759 5755 5757 5760 5764 5765 5766 5768 5770 5773 5774 5773 5772 5770 5772 5771 5772 5774 5771 5771 5765 5773
5828 5854 5834 5827 5825 5815 5816 5808 5782 5839 5861 5859 5861 5860 5856 5853 5852 5845 5834 5829 5814 5809 5797 5787 5776 5771 5767 5763 5762 5762 5761 5764 5766 5766 5769 5770 5770 5772 5769 5769 5770 5770 5772 5775 5776 5777 5776 5774 5765
5835 5846 5833 5832 5825 5837 5846 5835 5848 5856 5849 5865 5868 5871 5865 5863 5855 5846 5838 5832 5819 5810 5801 5792 5782 5776 5773 5771 5768 5768 5768 5769 5771 5768 5767 5767 5771 5767 5768 5771 5769 5769 5772 5775 5779 5779 5775 5780 5775
5852 5834 5827 5832 5834 5816 5848 5843 5846 5853 5827 5832 5869 5863 5859 5860 5854 5843 5835 5829 5816 5808 5803 5795 5786 5783 5781 5778 5775 5774 5772 5770 5767 5768 5767 5774 5771 5769 5773 5773 5771 5770 5773 5775 5779 5778 5776 5776 5780
5833 5817 5800 5805 5814 5821 5849 5830 5847 5864 5870 5868 5860 5862 5857 5853 5845 5834 5825 5821 5818 5812 5802 5795 5790 5784 5785 5780 5779 5779 5777 5777 5772 5772 5776 5774 5773 5774 5774 5774 5771 5772 5775 5775 5775 5777 5776 5776 5777
5823 5822 5816 5794 5810 5822 5800 5816 5845 5869 5873 5873 5865 5866 5860 5850 5844 5835 5826 5821 5815 5811 5804 5796 5792 5788 5788 5784 5783 5781 5781 5777 5782 5778 5779 5771 5771 5770 5775 5777 5776 5773 5777 5777 5776 5774 5776 5776 5777
5829 5809 5850 5836 5853 5838 5848 5859 5872 5866 5863 5863 5860 5859 5857 5852 5844 5835 5827 5821 5815 5811 5809 5803 5797 5793 5791 5791 5786 5783 5781 5779 5783 5782 5776 5775 5772 5772 5777 5775 5777 5777 5777 5777 5776 5775 5776 5779 5779
5837 5859 5816 5829 5792 5792 5831 5802 5834 5841 5845 5857 5859 5859 5858 5853 5843 5835 5826 5821 5817 5813 5811 5808 5803 5795 5792 5795 5790 5788 5783 5786 5784 5775 5772 5768 5770 5773 5776 5776 5777 5777 5778 5778 5776 5774 5776 5777 5781
5822 5821 5826 5848 5842 5807 5808 5826 5854 5851 5854 5852 5858 5864 5864 5853 5840 5831 5825 5823 5819 5817 5812 5809 5803 5802 5798 5799 5798 5792 5789 5785 5778 5778 5775 5770 5772 5773 5773 5774 5774 5774 5776 5778 5777 5775 5777 5775 5778
5841 5826 5831 5813 5808 5826 5827 5824 5879 5863 5860 5860 5856 5861 5863 5854 5840 5828 5822 5821 5818 5816 5813 5807 5804 5803 5801 5800 5797 5792 5787 5782 5781 5779 5779 5774 5774 5774 5775 5776 5776 5775 5775 5775 5774 5774 5776 5776 5774